Charlotte, NC

3:43 AM EST on November 25, 2017 (GMT -0500)
Charlotte-Douglas International

Weather History for KCLT - September, 2013

Change the Weather History Date:

Saturday, September 21, 2013

  Actual Average Record
Temperature  
Mean Temperature 70 °F 69 °F  
Max Temperature 76 °F 80 °F 97 °F (1895)
Min Temperature 63 °F 59 °F 43 °F (1918)
Degree Days  
Heating Degree Days 0 1  
Month to date heating degree days 0 6  
Since 1 July heating degree days 1 6  
Cooling Degree Days 5 5  
Month to date cooling degree days 214 163  
Year to date cooling degree days 1502 1440  
Growing Degree Days 20 (Base 50)    
Moisture  
Dew Point 67 °F    
Average Humidity 90    
Maximum Humidity 100    
Minimum Humidity 79    
Precipitation  
Precipitation 2.74 in 0.11 in 2.74 in (2013)
Month to date precipitation 2.89 2.25  
Year to date precipitation 38.21 30.85  
Snow  
Snow 0.00 in 0.00 in 0.00 in ()
Month to date snowfall 0.0 0.0  
Since 1 July snowfall 0.0 0.0  
Since 1 September snowfall 0.0 0.0  
Snow Depth 0.00 in    
Sea Level Pressure  
Sea Level Pressure 29.79 in    
Wind  
Wind Speed 8 mph (SE)    
Max Wind Speed 22 mph    
Max Gust Speed 31 mph    
Visibility 7 miles    
Events Rain    
T = Trace of Precipitation, MM = Missing Value Source: NWS Daily Summary

Daily Weather History Graph

Daily Weather History Graph

Search for Another Location

Airport or City:

Trip Planner

Search our weather history database for the weather conditions in past years. The results will help you decide how hot, cold, wet, or windy it might be!

Date:

Astronomy

Sep. 21, 2013 Rise Set
Actual Time 7:11 AM EDT 7:21 PM EDT
Civil Twilight 6:45 AM EDT 7:46 PM EDT
Nautical Twilight 6:16 AM EDT 8:16 PM EDT
Astronomical Twilight 5:46 AM EDT 8:46 PM EDT
Moon 8:39 PM EDT (9/21) 9:21 AM EDT (9/21)
Length of Visible Light 13h 01m
Length of Day
12h 10m
Waning Gibbous, 94% of the Moon is Illuminated
Sep 21
Waning Gibbous
Sep 26
Last Quarter
Oct 4
New
Oct 11
First Quarter
Oct 18
Full

Hourly Weather History & Observations

Time (EDT) Temp. Dew Point Humidity Pressure Visibility Wind Dir Wind Speed Gust Speed Precip Events Conditions
12:52 AM 71.1 °F 66.0 °F 84% 29.92 in 10.0 mi SSE 5.8 mph - N/A   Mostly Cloudy
1:52 AM 69.1 °F 66.0 °F 90% 29.92 in 10.0 mi SSE 4.6 mph - N/A   Clear
2:52 AM 69.1 °F 66.0 °F 90% 29.91 in 10.0 mi South 3.5 mph - N/A   Mostly Cloudy
3:52 AM 69.1 °F 66.0 °F 90% 29.90 in 10.0 mi SSE 4.6 mph - N/A   Mostly Cloudy
4:52 AM 68.0 °F 66.0 °F 93% 29.88 in 10.0 mi SSE 3.5 mph - N/A   Mostly Cloudy
5:52 AM 66.9 °F 64.9 °F 93% 29.87 in 10.0 mi South 3.5 mph - N/A   Mostly Cloudy
6:52 AM 66.0 °F 64.9 °F 96% 29.86 in 9.0 mi SSE 3.5 mph - N/A   Mostly Cloudy
7:52 AM 68.0 °F 66.0 °F 93% 29.87 in 7.0 mi South 5.8 mph - N/A   Mostly Cloudy
8:52 AM 71.1 °F 66.9 °F 87% 29.88 in 10.0 mi SW 8.1 mph - N/A   Overcast
9:52 AM 72.0 °F 66.0 °F 81% 29.88 in 10.0 mi SSW 12.7 mph 16.1 mph N/A   Overcast
10:52 AM 73.0 °F 66.0 °F 79% 29.87 in 10.0 mi SW 8.1 mph - N/A   Overcast
11:52 AM 73.9 °F 66.9 °F 79% 29.84 in 10.0 mi SSW 8.1 mph - 0.00 in Rain Light Rain
12:52 PM 75.9 °F 66.9 °F 74% 29.83 in 10.0 mi SSW 10.4 mph 18.4 mph 0.00 in Rain Light Rain
1:52 PM 73.9 °F 69.1 °F 85% 29.81 in 10.0 mi SSW 10.4 mph - 0.00 in Rain Light Rain
2:52 PM 73.9 °F 70.0 °F 87% 29.78 in 10.0 mi South 8.1 mph - 0.01 in Rain Light Rain
3:52 PM 73.0 °F 71.1 °F 93% 29.75 in 8.0 mi SSE 9.2 mph - 0.01 in Rain Light Rain
4:52 PM 73.0 °F 69.1 °F 87% 29.73 in 10.0 mi South 11.5 mph - 0.01 in Rain Light Rain
5:52 PM 72.0 °F 70.0 °F 93% 29.73 in 8.0 mi South 6.9 mph - 0.01 in Rain Light Rain
6:52 PM 71.1 °F 70.0 °F 96% 29.73 in 5.0 mi Calm Calm - 0.02 in Rain Rain
7:52 PM 71.1 °F 70.0 °F 96% 29.71 in 4.0 mi NNE 5.8 mph - 0.05 in Rain Light Rain
8:08 PM 71.6 °F 69.8 °F 94% 29.73 in 3.0 mi North 8.1 mph - 0.04 in Rain Heavy Rain
8:18 PM 69.8 °F 69.8 °F 100% 29.73 in 2.5 mi North 11.5 mph - 0.10 in Rain Heavy Rain
8:52 PM 69.1 °F 69.1 °F 100% 29.73 in 2.0 mi NE 5.8 mph - 0.51 in Rain Heavy Rain
9:38 PM 66.2 °F 66.2 °F 100% 29.74 in 2.0 mi NNE 12.7 mph - 0.79 in Rain Heavy Rain
9:52 PM 66.9 °F 66.9 °F 100% 29.71 in 3.0 mi NNE 16.1 mph - 0.98 in Rain Heavy Rain
10:10 PM 66.2 °F 66.2 °F 100% 29.72 in 3.0 mi NNE 13.8 mph - 0.14 in Rain Heavy Rain
10:44 PM 66.2 °F 66.2 °F 100% 29.71 in 2.5 mi NNE 16.1 mph 21.9 mph 0.34 in Rain Heavy Rain
10:52 PM 66.0 °F 66.0 °F 100% 29.69 in 2.0 mi NNE 16.1 mph - 0.43 in Rain Heavy Rain
10:59 PM 66.2 °F 66.2 °F 100% 29.71 in 2.0 mi NNE 17.3 mph 25.3 mph 0.07 in Rain Heavy Rain
11:37 PM 66.2 °F 64.4 °F 94% 29.70 in 2.0 mi North 17.3 mph 27.6 mph 0.34 in Rain Heavy Rain
11:52 PM 64.9 °F 64.9 °F 100% 29.69 in 2.5 mi NNE 19.6 mph 27.6 mph 0.44 in Rain Heavy Rain